Time,TemperatureF,DewpointF,PressureIn,WindDirection,WindDirectionDegrees,WindSpeedMPH,WindSpeedGustMPH,Humidity,HourlyPrecipIn,Conditions,Clouds,dailyrainin,SoftwareType,DateUTC
2013-06-28 00:01:00,65.0,56.0,30.04,NE,34,0.0,1.0,74,-99.99,,,-99.99,,2013-06-28 07:01:00,
2013-06-28 00:11:00,65.0,56.0,30.04,NE,34,0.0,1.0,74,-99.99,,,-99.99,,2013-06-28 07:11:00,
2013-06-28 00:33:00,65.0,57.0,30.04,NNE,18,0.0,3.0,75,-99.99,,,-99.99,,2013-06-28 07:33:00,
2013-06-28 00:42:00,65.0,57.0,30.04,NNE,18,0.0,0.0,75,-99.99,,,-99.99,,2013-06-28 07:42:00,
2013-06-28 00:52:00,64.0,56.0,30.04,NNE,18,0.0,0.0,75,-99.99,,,-99.99,,2013-06-28 07:52:00,
2013-06-28 01:01:00,64.0,56.0,30.04,NNE,18,0.0,0.0,76,-99.99,,,-99.99,,2013-06-28 08:01:00,
2013-06-28 01:11:00,65.0,57.0,30.04,NNE,18,0.0,0.0,76,-99.99,,,-99.99,,2013-06-28 08:11:00,
2013-06-28 01:21:00,65.0,57.0,30.03,NNE,18,1.0,2.0,75,-99.99,,,-99.99,,2013-06-28 08:21:00,
2013-06-28 01:33:00,66.0,57.0,30.03,NNE,18,3.0,5.0,72,-99.99,,,-99.99,,2013-06-28 08:33:00,
2013-06-28 01:43:00,68.0,57.0,30.02,NNE,17,1.0,5.0,67,-99.99,,,-99.99,,2013-06-28 08:43:00,
2013-06-28 01:52:00,68.0,57.0,30.02,NNE,17,1.0,5.0,67,-99.99,,,-99.99,,2013-06-28 08:52:00,
2013-06-28 02:02:00,68.0,57.0,30.02,NNE,17,1.0,5.0,67,-99.99,,,-99.99,,2013-06-28 09:02:00,
2013-06-28 02:11:00,68.0,57.0,30.02,NNE,17,1.0,5.0,67,-99.99,,,-99.99,,2013-06-28 09:11:00,
2013-06-28 02:21:00,66.0,55.0,30.03,NNE,17,0.0,0.0,68,-99.99,,,-99.99,,2013-06-28 09:21:00,
2013-06-28 02:33:00,65.0,55.0,30.03,NNE,17,0.0,0.0,70,-99.99,,,-99.99,,2013-06-28 09:33:00,
2013-06-28 02:42:00,65.0,55.0,30.03,NNE,17,0.0,0.0,70,-99.99,,,-99.99,,2013-06-28 09:42:00,
2013-06-28 02:52:00,63.0,55.0,30.02,NNE,17,0.0,0.0,74,-99.99,,,-99.99,,2013-06-28 09:52:00,
2013-06-28 03:02:00,63.0,55.0,30.02,NNE,17,0.0,0.0,74,-99.99,,,-99.99,,2013-06-28 10:02:00,
2013-06-28 03:11:00,63.0,55.0,30.02,NNE,17,0.0,0.0,74,-99.99,,,-99.99,,2013-06-28 10:11:00,
2013-06-28 03:22:00,63.0,55.0,30.02,NNE,17,0.0,0.0,74,-99.99,,,-99.99,,2013-06-28 10:22:00,
2013-06-28 03:33:00,62.0,55.0,30.02,NNE,17,0.0,2.0,79,-99.99,,,-99.99,,2013-06-28 10:33:00,
2013-06-28 03:42:00,62.0,55.0,30.02,NNE,17,0.0,2.0,79,-99.99,,,-99.99,,2013-06-28 10:42:00,
2013-06-28 03:52:00,61.0,54.0,30.01,NNE,17,0.0,0.0,79,-99.99,,,-99.99,,2013-06-28 10:52:00,
2013-06-28 04:01:00,61.0,55.0,30.01,NNE,17,0.0,0.0,80,-99.99,,,-99.99,,2013-06-28 11:01:00,
2013-06-28 04:11:00,61.0,55.0,30.01,NNE,17,0.0,0.0,81,-99.99,,,-99.99,,2013-06-28 11:11:00,
2013-06-28 04:22:00,61.0,55.0,30.01,NNE,17,0.0,0.0,81,-99.99,,,-99.99,,2013-06-28 11:22:00,
2013-06-28 04:34:00,60.0,54.0,30.01,NNE,17,0.0,0.0,82,-99.99,,,-99.99,,2013-06-28 11:34:00,
2013-06-28 04:42:00,60.0,54.0,30.01,NNE,17,0.0,0.0,82,-99.99,,,-99.99,,2013-06-28 11:42:00,
2013-06-28 04:53:00,60.0,54.0,30.00,NNE,17,0.0,0.0,82,-99.99,,,-99.99,,2013-06-28 11:53:00,
2013-06-28 05:01:00,60.0,54.0,30.00,NNE,17,0.0,0.0,82,-99.99,,,-99.99,,2013-06-28 12:01:00,
2013-06-28 05:12:00,60.0,55.0,29.99,NNE,17,0.0,0.0,83,-99.99,,,-99.99,,2013-06-28 12:12:00,
2013-06-28 05:22:00,60.0,55.0,29.99,NNE,17,0.0,0.0,83,-99.99,,,-99.99,,2013-06-28 12:22:00,
2013-06-28 05:33:00,60.0,55.0,29.99,NNE,17,0.0,1.0,83,-99.99,,,-99.99,,2013-06-28 12:33:00,
2013-06-28 05:43:00,61.0,56.0,29.99,NNE,17,0.0,1.0,83,-99.99,,,-99.99,,2013-06-28 12:43:00,
2013-06-28 05:52:00,61.0,56.0,29.99,NNE,17,0.0,1.0,83,-99.99,,,-99.99,,2013-06-28 12:52:00,
2013-06-28 06:01:00,61.0,55.0,29.99,NNE,17,1.0,1.0,81,-99.99,,,-99.99,,2013-06-28 13:01:00,
2013-06-28 06:11:00,61.0,55.0,29.99,NNE,17,1.0,1.0,81,-99.99,,,-99.99,,2013-06-28 13:11:00,
2013-06-28 06:23:00,62.0,56.0,29.99,NNE,17,0.0,1.0,80,-99.99,,,-99.99,,2013-06-28 13:23:00,
2013-06-28 06:33:00,62.0,56.0,29.99,NNE,17,0.0,1.0,80,-99.99,,,-99.99,,2013-06-28 13:33:00,
2013-06-28 06:43:00,62.0,56.0,29.99,NNE,17,0.0,1.0,80,-99.99,,,-99.99,,2013-06-28 13:43:00,
2013-06-28 07:01:00,62.0,55.0,30.00,NNE,17,0.0,2.0,78,-99.99,,,-99.99,,2013-06-28 14:01:00,
2013-06-28 07:11:00,62.0,55.0,30.00,NNE,17,0.0,2.0,78,-99.99,,,-99.99,,2013-06-28 14:11:00,
2013-06-28 07:33:00,64.0,56.0,30.01,WNW,301,0.0,1.0,75,-99.99,,,-99.99,,2013-06-28 14:33:00,
2013-06-28 07:44:00,65.0,56.0,30.01,WNW,301,0.0,1.0,74,-99.99,,,-99.99,,2013-06-28 14:44:00,
2013-06-28 07:53:00,65.0,56.0,30.01,WNW,301,0.0,1.0,74,-99.99,,,-99.99,,2013-06-28 14:53:00,
2013-06-28 08:02:00,66.0,57.0,30.01,WNW,301,0.0,1.0,73,-99.99,,,-99.99,,2013-06-28 15:02:00,
2013-06-28 08:24:00,67.0,57.0,30.01,WNW,301,1.0,2.0,71,-99.99,,,-99.99,,2013-06-28 15:24:00,
2013-06-28 08:33:00,67.0,57.0,30.01,WNW,301,1.0,2.0,71,-99.99,,,-99.99,,2013-06-28 15:33:00,
2013-06-28 08:43:00,67.0,57.0,30.01,WNW,301,1.0,2.0,71,-99.99,,,-99.99,,2013-06-28 15:43:00,
2013-06-28 08:52:00,67.0,57.0,30.01,WNW,301,1.0,2.0,71,-99.99,,,-99.99,,2013-06-28 15:52:00,
2013-06-28 09:11:00,74.0,59.0,30.01,SW,236,1.0,2.0,59,-99.99,,,-99.99,,2013-06-28 16:11:00,
2013-06-28 09:24:00,74.0,59.0,30.01,SW,236,1.0,2.0,59,-99.99,,,-99.99,,2013-06-28 16:24:00,
2013-06-28 10:11:00,79.0,60.0,30.00,WSW,240,2.0,5.0,53,-99.99,,,-99.99,,2013-06-28 17:11:00,
2013-06-28 10:33:00,81.0,60.0,30.00,SW,236,3.0,6.0,49,-99.99,,,-99.99,,2013-06-28 17:33:00,
2013-06-28 10:44:00,81.0,60.0,30.00,SW,236,3.0,6.0,49,-99.99,,,-99.99,,2013-06-28 17:44:00,
2013-06-28 11:01:00,83.0,62.0,29.99,West,280,5.0,7.0,49,-99.99,,,-99.99,,2013-06-28 18:01:00,
2013-06-28 11:11:00,83.0,63.0,29.99,SW,229,2.0,6.0,51,-99.99,,,-99.99,,2013-06-28 18:11:00,
2013-06-28 11:22:00,83.0,63.0,29.99,SW,229,2.0,6.0,51,-99.99,,,-99.99,,2013-06-28 18:22:00,
2013-06-28 11:33:00,83.0,63.0,29.99,SW,229,2.0,6.0,51,-99.99,,,-99.99,,2013-06-28 18:33:00,
2013-06-28 11:43:00,85.0,63.0,29.99,WSW,253,1.0,8.0,48,-99.99,,,-99.99,,2013-06-28 18:43:00,
2013-06-28 11:52:00,85.0,63.0,29.99,WSW,253,1.0,8.0,48,-99.99,,,-99.99,,2013-06-28 18:52:00,
2013-06-28 12:01:00,86.0,62.0,29.99,WSW,239,4.0,10.0,45,-99.99,,,-99.99,,2013-06-28 19:01:00,
2013-06-28 12:11:00,86.0,62.0,29.99,WSW,239,4.0,10.0,45,-99.99,,,-99.99,,2013-06-28 19:11:00,
2013-06-28 12:22:00,86.0,62.0,29.98,South,191,2.0,8.0,44,-99.99,,,-99.99,,2013-06-28 19:22:00,
2013-06-28 12:32:00,86.0,60.0,29.98,SW,217,7.0,12.0,42,-99.99,,,-99.99,,2013-06-28 19:32:00,
2013-06-28 12:42:00,85.0,59.0,29.98,SW,236,6.0,11.0,41,-99.99,,,-99.99,,2013-06-28 19:42:00,
2013-06-28 12:53:00,84.0,58.0,29.99,SW,230,8.0,14.0,42,-99.99,,,-99.99,,2013-06-28 19:53:00,
2013-06-28 13:02:00,83.0,59.0,29.99,SSW,209,11.0,13.0,44,-99.99,,,-99.99,,2013-06-28 20:02:00,
2013-06-28 13:11:00,83.0,59.0,29.99,SSW,209,11.0,13.0,44,-99.99,,,-99.99,,2013-06-28 20:11:00,
2013-06-28 13:22:00,83.0,59.0,29.99,SSW,209,11.0,13.0,44,-99.99,,,-99.99,,2013-06-28 20:22:00,
2013-06-28 13:33:00,81.0,58.0,29.99,WSW,239,12.0,16.0,46,-99.99,,,-99.99,,2013-06-28 20:33:00,
2013-06-28 13:43:00,81.0,58.0,29.99,WSW,239,12.0,16.0,46,-99.99,,,-99.99,,2013-06-28 20:43:00,
2013-06-28 13:52:00,81.0,58.0,29.99,WSW,239,12.0,16.0,46,-99.99,,,-99.99,,2013-06-28 20:52:00,
2013-06-28 14:01:00,81.0,57.0,29.98,SW,226,6.0,11.0,44,-99.99,,,-99.99,,2013-06-28 21:01:00,
2013-06-28 14:11:00,80.0,58.0,29.98,SW,217,7.0,13.0,47,-99.99,,,-99.99,,2013-06-28 21:11:00,
2013-06-28 14:23:00,79.0,58.0,29.98,SW,219,10.0,14.0,48,-99.99,,,-99.99,,2013-06-28 21:23:00,
2013-06-28 14:33:00,78.0,58.0,29.98,SSW,209,7.0,13.0,50,-99.99,,,-99.99,,2013-06-28 21:33:00,
2013-06-28 15:01:00,76.0,57.0,29.98,SSW,212,11.0,13.0,52,-99.99,,,-99.99,,2013-06-28 22:01:00,
2013-06-28 15:11:00,76.0,57.0,29.98,SSW,212,11.0,13.0,52,-99.99,,,-99.99,,2013-06-28 22:11:00,
2013-06-28 15:42:00,76.0,57.0,29.98,SSW,212,11.0,13.0,52,-99.99,,,-99.99,,2013-06-28 22:42:00,
2013-06-28 15:52:00,79.0,56.0,29.97,WSW,251,3.0,11.0,46,-99.99,,,-99.99,,2013-06-28 22:52:00,
2013-06-28 16:01:00,79.0,56.0,29.97,WSW,251,3.0,11.0,46,-99.99,,,-99.99,,2013-06-28 23:01:00,
2013-06-28 16:11:00,79.0,56.0,29.97,WSW,251,3.0,11.0,46,-99.99,,,-99.99,,2013-06-28 23:11:00,
2013-06-28 16:33:00,82.0,57.0,29.95,SW,215,3.0,7.0,43,-99.99,,,-99.99,,2013-06-28 23:33:00,
2013-06-28 16:43:00,82.0,57.0,29.95,SSW,209,6.0,8.0,43,-99.99,,,-99.99,,2013-06-28 23:43:00,
2013-06-28 16:53:00,82.0,57.0,29.95,SSW,209,6.0,8.0,43,-99.99,,,-99.99,,2013-06-28 23:53:00,
2013-06-28 17:01:00,82.0,57.0,29.95,SSW,209,6.0,8.0,43,-99.99,,,-99.99,,2013-06-29 00:01:00,
2013-06-28 17:11:00,82.0,57.0,29.95,SSW,209,6.0,8.0,43,-99.99,,,-99.99,,2013-06-29 00:11:00,
2013-06-28 17:33:00,81.0,58.0,29.94,WSW,243,4.0,9.0,46,-99.99,,,-99.99,,2013-06-29 00:33:00,
2013-06-28 17:42:00,81.0,58.0,29.94,WSW,243,4.0,9.0,46,-99.99,,,-99.99,,2013-06-29 00:42:00,
2013-06-28 17:52:00,81.0,58.0,29.94,WSW,243,4.0,9.0,46,-99.99,,,-99.99,,2013-06-29 00:52:00,
2013-06-28 18:01:00,80.0,59.0,29.94,West,263,3.0,10.0,48,-99.99,,,-99.99,,2013-06-29 01:01:00,
2013-06-28 18:11:00,80.0,59.0,29.94,West,263,3.0,10.0,48,-99.99,,,-99.99,,2013-06-29 01:11:00,
2013-06-28 18:22:00,80.0,59.0,29.94,West,263,3.0,10.0,48,-99.99,,,-99.99,,2013-06-29 01:22:00,
2013-06-28 18:31:00,80.0,59.0,29.94,West,263,3.0,10.0,48,-99.99,,,-99.99,,2013-06-29 01:31:00,
2013-06-28 19:31:00,75.0,58.0,29.93,West,274,4.0,6.0,56,-99.99,,,-99.99,,2013-06-29 02:31:00,
2013-06-28 19:41:00,75.0,58.0,29.93,West,274,4.0,6.0,56,-99.99,,,-99.99,,2013-06-29 02:41:00,
2013-06-28 19:51:00,75.0,58.0,29.93,West,274,4.0,6.0,56,-99.99,,,-99.99,,2013-06-29 02:51:00,
2013-06-28 20:00:00,75.0,58.0,29.93,West,274,4.0,6.0,56,-99.99,,,-99.99,,2013-06-29 03:00:00,
2013-06-28 20:11:00,75.0,58.0,29.93,West,274,4.0,6.0,56,-99.99,,,-99.99,,2013-06-29 03:11:00,
2013-06-28 21:32:00,69.0,58.0,29.94,WSW,239,1.0,3.0,67,-99.99,,,-99.99,,2013-06-29 04:32:00,
2013-06-28 21:41:00,69.0,58.0,29.94,WSW,239,1.0,3.0,67,-99.99,,,-99.99,,2013-06-29 04:41:00,
2013-06-28 21:51:00,69.0,58.0,29.94,WSW,239,1.0,3.0,67,-99.99,,,-99.99,,2013-06-29 04:51:00,
2013-06-28 22:01:00,69.0,58.0,29.94,WSW,239,1.0,3.0,67,-99.99,,,-99.99,,2013-06-29 05:01:00,
2013-06-28 22:10:00,67.0,57.0,29.95,WSW,250,0.0,1.0,70,-99.99,,,-99.99,,2013-06-29 05:10:00,
2013-06-28 22:21:00,67.0,57.0,29.95,WSW,250,0.0,1.0,70,-99.99,,,-99.99,,2013-06-29 05:21:00,
2013-06-28 22:31:00,67.0,57.0,29.95,WSW,250,0.0,1.0,70,-99.99,,,-99.99,,2013-06-29 05:31:00,
2013-06-28 22:41:00,63.0,55.0,29.96,WSW,251,0.0,3.0,75,-99.99,,,-99.99,,2013-06-29 05:41:00,
2013-06-28 22:51:00,63.0,55.0,29.96,WSW,251,0.0,3.0,75,-99.99,,,-99.99,,2013-06-29 05:51:00,
2013-06-28 23:01:00,63.0,56.0,29.96,West,275,0.0,1.0,77,-99.99,,,-99.99,,2013-06-29 06:01:00,
2013-06-28 23:12:00,63.0,56.0,29.96,West,261,1.0,2.0,78,-99.99,,,-99.99,,2013-06-29 06:12:00,
2013-06-28 23:22:00,63.0,56.0,29.96,WSW,248,1.0,3.0,78,-99.99,,,-99.99,,2013-06-29 06:22:00,
2013-06-28 23:33:00,63.0,56.0,29.96,WSW,244,0.0,3.0,78,-99.99,,,-99.99,,2013-06-29 06:33:00,
2013-06-28 23:43:00,63.0,56.0,29.96,WSW,244,0.0,3.0,78,-99.99,,,-99.99,,2013-06-29 06:43:00,
2013-06-28 23:53:00,63.0,56.0,29.96,WSW,244,0.0,3.0,78,-99.99,,,-99.99,,2013-06-29 06:53:00,